N3917X FA83-KISM

Flight info

Callsign N3917X
Flight time 0h 25m
Altitude 2000
Route LOCAL VFR
Aircraft P28B/L-SFG/C

Departure

Time 2026-04-25 20:59
Airport Orlando North Airpark (FA83)

Arrival

Time 2026-04-25 21:24
Airport Kissimmee Gateway Airport (KISM)
Time Latitude Longitude Altitude Speed Heading
2026-04-25 20:41 28.72268 -81.65132 89 ft 0 kts 20°
2026-04-25 20:57 28.72269 -81.65132 86 ft 1 kts 20°
2026-04-25 20:57 28.72272 -81.65094 91 ft 7 kts 127°
2026-04-25 20:57 28.72222 -81.65081 91 ft 6 kts 179°
2026-04-25 20:57 28.72203 -81.65081 87 ft 2 kts 178°
2026-04-25 20:58 28.72160 -81.65087 89 ft 5 kts 248°
2026-04-25 20:58 28.72160 -81.65275 90 ft 54 kts 269°
2026-04-25 20:58 28.72159 -81.65871 212 ft 85 kts 268°
2026-04-25 20:58 28.72167 -81.66546 557 ft 85 kts 263°
2026-04-25 20:59 28.71949 -81.67139 944 ft 82 kts 232°
2026-04-25 20:59 28.71500 -81.67532 1293 ft 84 kts 216°
2026-04-25 20:59 28.70992 -81.67911 1568 ft 92 kts 215°
2026-04-25 20:59 28.70423 -81.68287 1823 ft 95 kts 212°
2026-04-25 21:00 28.69845 -81.68646 2121 ft 96 kts 212°
2026-04-25 21:00 28.69442 -81.68887 2130 ft 101 kts 211°
2026-04-25 21:00 28.67931 -81.69749 2217 ft 112 kts 207°
2026-04-25 21:01 28.67204 -81.70081 2229 ft 117 kts 205°
2026-04-25 21:01 28.66435 -81.70409 2266 ft 118 kts 202°
2026-04-25 21:01 28.65670 -81.70731 2346 ft 116 kts 203°
2026-04-25 21:01 28.64905 -81.71017 2428 ft 114 kts 202°
2026-04-25 21:02 28.64131 -81.71287 2481 ft 119 kts 201°
2026-04-25 21:02 28.63319 -81.71493 2517 ft 120 kts 191°
2026-04-25 21:02 28.62478 -81.71571 2464 ft 124 kts 188°
2026-04-25 21:02 28.61598 -81.71636 2375 ft 125 kts 186°
2026-04-25 21:03 28.60733 -81.71681 2310 ft 123 kts 186°
2026-04-25 21:03 28.59886 -81.71651 2263 ft 123 kts 176°
2026-04-25 21:03 28.59031 -81.71470 2127 ft 126 kts 173°
2026-04-25 21:03 28.58160 -81.71243 2020 ft 130 kts 168°
2026-04-25 21:04 28.57276 -81.70985 1976 ft 132 kts 169°
2026-04-25 21:04 28.56401 -81.70707 2032 ft 130 kts 167°
2026-04-25 21:04 28.55532 -81.70460 2115 ft 127 kts 173°
2026-04-25 21:04 28.54646 -81.70309 2136 ft 130 kts 178°
2026-04-25 21:05 28.53745 -81.70185 2109 ft 133 kts 178°
2026-04-25 21:05 28.52822 -81.70124 2066 ft 133 kts 181°
2026-04-25 21:05 28.51895 -81.70110 2089 ft 130 kts 181°
2026-04-25 21:05 28.50988 -81.70098 2096 ft 133 kts 184°
2026-04-25 21:06 28.50062 -81.70118 2034 ft 133 kts 186°
2026-04-25 21:06 28.49151 -81.70156 2005 ft 129 kts 187°
2026-04-25 21:06 28.48274 -81.70206 2053 ft 121 kts 187°
2026-04-25 21:06 28.47721 -81.70248 2096 ft 119 kts 188°
2026-04-25 21:07 28.46600 -81.70366 2246 ft 126 kts 188°
2026-04-25 21:07 28.45715 -81.70459 2286 ft 129 kts 189°
2026-04-25 21:07 28.44830 -81.70548 2242 ft 124 kts 189°
2026-04-25 21:07 28.43994 -81.70582 2061 ft 116 kts 181°
2026-04-25 21:08 28.43211 -81.70460 1939 ft 115 kts 172°
2026-04-25 21:08 28.42410 -81.70227 2000 ft 120 kts 167°
2026-04-25 21:08 28.41615 -81.69954 2149 ft 121 kts 165°
2026-04-25 21:08 28.40774 -81.69654 2118 ft 130 kts 167°
2026-04-25 21:09 28.39090 -81.68959 2072 ft 129 kts 162°
2026-04-25 21:09 28.38247 -81.68587 1975 ft 131 kts 162°
2026-04-25 21:09 28.37410 -81.68206 1946 ft 127 kts 162°
2026-04-25 21:10 28.36647 -81.67733 2043 ft 123 kts 145°
2026-04-25 21:10 28.36053 -81.67031 2075 ft 127 kts 131°
2026-04-25 21:10 28.35590 -81.66139 1983 ft 135 kts 118°
2026-04-25 21:10 28.35244 -81.65124 1947 ft 138 kts 110°
2026-04-25 21:11 28.34988 -81.64095 1945 ft 133 kts 107°
2026-04-25 21:11 28.34771 -81.63071 1918 ft 135 kts 105°
2026-04-25 21:11 28.34565 -81.62062 1969 ft 128 kts 105°
2026-04-25 21:11 28.34383 -81.61092 1977 ft 124 kts 103°
2026-04-25 21:12 28.34245 -81.60117 1991 ft 125 kts 101°
2026-04-25 21:12 28.34121 -81.59148 1975 ft 126 kts 101°
2026-04-25 21:12 28.33941 -81.58186 2044 ft 124 kts 106°
2026-04-25 21:12 28.33786 -81.57548 2061 ft 127 kts 109°
2026-04-25 21:13 28.33466 -81.56256 2214 ft 125 kts 102°
2026-04-25 21:13 28.33382 -81.55273 2153 ft 133 kts 96°
2026-04-25 21:13 28.33353 -81.54220 2092 ft 133 kts 94°
2026-04-25 21:13 28.33359 -81.53196 2152 ft 127 kts 94°
2026-04-25 21:14 28.33277 -81.52188 2145 ft 125 kts 104°
2026-04-25 21:14 28.32950 -81.51344 2124 ft 117 kts 137°
2026-04-25 21:14 28.32312 -81.50799 2036 ft 112 kts 148°
2026-04-25 21:14 28.31679 -81.50294 1943 ft 109 kts 148°
2026-04-25 21:15 28.31058 -81.49852 1825 ft 103 kts 154°
2026-04-25 21:15 28.30431 -81.49485 1738 ft 100 kts 161°
2026-04-25 21:15 28.29786 -81.49208 1672 ft 98 kts 162°
2026-04-25 21:15 28.29138 -81.48934 1556 ft 102 kts 159°
2026-04-25 21:16 28.28483 -81.48633 1428 ft 103 kts 157°
2026-04-25 21:16 28.27907 -81.48170 1303 ft 101 kts 139°
2026-04-25 21:16 28.27503 -81.47519 1121 ft 101 kts 116°
2026-04-25 21:16 28.27399 -81.46733 1091 ft 101 kts 84°
2026-04-25 21:17 28.27705 -81.46031 1069 ft 99 kts 38°
2026-04-25 21:17 28.28308 -81.45738 1045 ft 95 kts 358°
2026-04-25 21:17 28.28957 -81.45853 1023 ft 94 kts 336°
2026-04-25 21:17 28.29529 -81.46126 1091 ft 84 kts 332°
2026-04-25 21:18 28.30056 -81.46403 931 ft 85 kts 333°
2026-04-25 21:18 28.30615 -81.46368 774 ft 85 kts 34°
2026-04-25 21:18 28.30947 -81.45833 703 ft 81 kts 83°
2026-04-25 21:18 28.30871 -81.45226 550 ft 80 kts 120°
2026-04-25 21:19 28.30499 -81.44790 350 ft 74 kts 144°
2026-04-25 21:19 28.30095 -81.44500 239 ft 66 kts 146°
2026-04-25 21:19 28.29841 -81.44322 176 ft 64 kts 145°
2026-04-25 21:19 28.29589 -81.44143 110 ft 64 kts 147°
2026-04-25 21:20 28.28222 -81.43165 675 ft 73 kts 148°
2026-04-25 21:20 28.27774 -81.42880 965 ft 78 kts 171°
2026-04-25 21:21 28.27249 -81.43105 1136 ft 92 kts 224°
2026-04-25 21:21 28.26874 -81.43769 1175 ft 106 kts 246°
2026-04-25 21:21 28.26967 -81.44625 1155 ft 118 kts 300°
2026-04-25 21:21 28.27617 -81.45216 1108 ft 127 kts 334°
2026-04-25 21:22 28.28400 -81.45610 1125 ft 121 kts 333°
2026-04-25 21:22 28.29151 -81.45968 1166 ft 109 kts 333°
2026-04-25 21:22 28.29798 -81.46273 1158 ft 96 kts 335°
2026-04-25 21:22 28.30417 -81.46520 1059 ft 95 kts 352°
2026-04-25 21:23 28.31033 -81.46268 901 ft 96 kts 44°
2026-04-25 21:23 28.31275 -81.45630 734 ft 87 kts 98°
2026-04-25 21:23 28.30942 -81.45097 473 ft 83 kts 142°
2026-04-25 21:23 28.30470 -81.44759 313 ft 74 kts 148°
2026-04-25 21:24 28.30066 -81.44476 216 ft 66 kts 146°
2026-04-25 21:24 28.29678 -81.44204 128 ft 65 kts 146°
2026-04-25 21:24 28.29342 -81.43969 92 ft 46 kts 148°
2026-04-25 21:24 28.28981 -81.43728 239 ft 67 kts 149°
2026-04-25 21:25 28.28561 -81.43472 476 ft 73 kts 147°
2026-04-25 21:25 28.28122 -81.43180 815 ft 73 kts 151°
2026-04-25 21:25 28.27622 -81.43205 1057 ft 85 kts 218°
2026-04-25 21:25 28.27233 -81.43806 1188 ft 104 kts 239°
2026-04-25 21:26 28.27211 -81.44615 1167 ft 113 kts 295°
2026-04-25 21:26 28.27824 -81.45205 1088 ft 119 kts 327°
2026-04-25 21:26 28.28550 -81.45616 1122 ft 113 kts 331°
2026-04-25 21:26 28.29206 -81.45941 1158 ft 90 kts 335°
2026-04-25 21:27 28.29740 -81.46192 1114 ft 77 kts 326°
2026-04-25 21:27 28.30291 -81.46371 1012 ft 93 kts
2026-04-25 21:27 28.30860 -81.46032 871 ft 93 kts 54°
2026-04-25 21:27 28.31057 -81.45384 748 ft 87 kts 101°
2026-04-25 21:28 28.30704 -81.44880 516 ft 84 kts 149°
2026-04-25 21:28 28.30215 -81.44591 288 ft 73 kts 146°
2026-04-25 21:28 28.29805 -81.44298 173 ft 67 kts 145°
2026-04-25 21:28 28.29436 -81.44036 93 ft 54 kts 147°
2026-04-25 21:29 28.29225 -81.43885 91 ft 19 kts 147°
2026-04-25 21:29 28.29149 -81.43824 94 ft 9 kts 103°
2026-04-25 21:29 28.29182 -81.43743 92 ft 10 kts 58°
2026-04-25 21:29 28.29220 -81.43670 91 ft 11 kts 58°
2026-04-25 21:30 28.29259 -81.43599 91 ft 10 kts 59°
2026-04-25 21:30 28.29293 -81.43540 91 ft 8 kts 56°
2026-04-25 21:30 28.29328 -81.43477 89 ft 10 kts 59°
2026-04-25 21:30 28.29354 -81.43429 89 ft 11 kts 59°
2026-04-25 21:31 28.29407 -81.43347 89 ft 7 kts 19°
2026-04-25 21:31 28.29427 -81.43364 88 ft 3 kts 269°
2026-04-25 21:31 28.29427 -81.43367 90 ft 1 kts 268°
2026-04-25 21:31 28.29427 -81.43369 90 ft 0 kts 267°